Regional Weather Roundup
Issued by NWS Bismarck, ND

Home | Current Version | Previous Version | Text Only | Print | Product List | Glossary On
Versions: 1 2 3 4 5 6 7 8 9 10 11 12 13 14 15 16 17 18 19 20 21 22 23 24 25 26 27 28 29 30 31 32 33 34 35 36 37 38 39 40 41 42 43 44 45 46 47 48 49 50
000
ASUS43 KBIS 171410
RWRBIS

NWR BROADCAST TEXT
NATIONAL WEATHER SERVICE BISMARCK ND
900 AM CDT THU APR 17 2014

NOTE: "FAIR" INDICATES FEW OR NO CLOUDS BELOW 12,000 FEET WITH NO
SIGNIFICANT WEATHER AND/OR OBSTRUCTIONS TO VISIBILITY.


CITY           SKY/WX    TMP DP  RH WIND       PRES   REMARKS
WILLISTON      CLOUDY    28  21  75 SE18      30.20F WCI  15
MINOT          CLOUDY    25  12  58 E9        30.30F WCI  15
MINOT AFB      CLOUDY    24  12  61 E12       30.30F WCI  13
BISMARCK       CLOUDY    27  15  61 E10       30.32S WCI  17
DICKINSON      CLOUDY    29  20  69 SE16      30.17F WCI  17
GARRISON         N/A     25  15  66 SE10      30.28F WCI  15
HETTINGER ARPT LGT SNOW  27  24  89 SE14      30.20S FOG     WCI  16
JAMESTOWN      SUNNY     26  18  71 VRB3      30.33R
CARRINGTON     FAIR      25  16  68 CALM      30.34S
CROSBY         CLOUDY    25  18  74 SE14      30.24S WCI  13
HARVEY         FAIR      23  14  68 SE7       30.33S WCI  15
HAZEN          CLOUDY    28  14  54 SE9       30.29F WCI  20
LINTON         FAIR      27  19  74 SE7       30.30F WCI  19
MANDAN         CLOUDY    25  16  68 E10       30.30S WCI  15
OAKES          FAIR      27  19  74 N8        30.34S WCI  18
RUGBY          FAIR      23  12  63 E9        30.33S WCI  13
STANLEY        CLOUDY    23  18  80 SE13      30.25S WCI  11
TIOGA          CLOUDY    23  19  86 E12       30.24F WCI  12
WATFORD CITY   CLOUDY    27  16  63 SE15G21   30.18S WCI  15
$$

CITY           SKY/WX    TMP DP  RH WIND       PRES   REMARKS
GRAND FORKS    SUNNY     27  19  72 N8        30.37R WCI  19
GRAND FORKS AF SUNNY     27  17  64 N8        30.37S WCI  19
DEVILS LAKE    SUNNY     23  10  58 CALM      30.34S
FARGO          SUNNY     30  18  60 N8        30.35R
CANDO          FAIR      23  14  68 NE3       30.35S
CAVALIER       FAIR      23  14  68 N9        30.39S WCI  13
GRAFTON        FAIR      25  18  74 N9        30.38S WCI  15
GWINNER        SUNNY     30  21  69 N9        30.35R
LANGDON        FAIR      27  12  54 E5        30.33S
ROLLA          FAIR      23  10  58 NE5       30.33S WCI  17
WALHALLA         N/A     23  14  68 N7        30.40S WCI  15
$$

CITY           SKY/WX    TMP DP  RH WIND       PRES   REMARKS
ABERDEEN       SUNNY     25  20  81 NE8       30.34S WCI  16
MOBRIDGE       SUNNY     27  15  61 E9        30.28R WCI  18
BUFFALO          N/A     30  26  85 SE15      30.07S WCI  19
RAPID CITY     CLOUDY    32  27  80 SE18      30.15S
GLASGOW        PTSUNNY   29  23  78 E22       30.06S WCI  15
SIDNEY         CLOUDY    32  21  64 SE7       30.18F
WOLF POINT     SUNNY     31  22  69 E10       30.14S
GLENDIVE       SUNNY     30  25  80 E9        30.13S
MILES CITY     SUNNY     36  29  75 SE7       30.06F
BAKER          CLOUDY    30  26  85 SE16      30.11S WCI  19
$$

CITY           SKY/WX    TMP DP  RH WIND       PRES   REMARKS
BILLINGS       CLOUDY    34  31  88 N3        29.99S
GREAT FALLS    CLOUDY    42  32  67 SW9       29.87S
REGINA         CLOUDY    27  14  59 SE21G28   30.20F WCI  13
ESTEVAN        CLOUDY    25  16  68 SE15      30.25F WCI  12
$$




USA.gov is the U.S. government's official web portal to all federal, state and local government web resources and services.